Douglas, AZ

4:26 AM MST on February 22, 2017 (GMT -0700)
Bisbee Douglas International

Weather History for KDUG - July, 2013

Change the Weather History Date:

Thursday, July 18, 2013

  Actual Average Record
Temperature  
Mean Temperature 74 °F 80 °F  
Max Temperature 83 °F 94 °F 103 °F (1989)
Min Temperature 65 °F 66 °F 59 °F (1987)
Degree Days  
Heating Degree Days 0 0  
Month to date heating degree days 0 0  
Since 1 June heating degree days 0 0  
Since 1 July heating degree days 0 0  
Cooling Degree Days 9 15  
Month to date cooling degree days 269 282  
Year to date cooling degree days 978 878  
Since 1 June cooling degree days 778 677  
Growing Degree Days 22 (Base 50)    
Moisture  
Dew Point 59 °F    
Average Humidity 65    
Maximum Humidity 84    
Minimum Humidity 45    
Precipitation  
Precipitation 0.03 in 0.10 in 2.13 in (1995)
Month to date precipitation 8.45 1.43  
Year to date precipitation 9.43 4.44  
Snow  
Snow 0.00 in - - ()
Month to date snowfall 0.0  
Snow Depth 0.00 in    
Sea Level Pressure  
Sea Level Pressure 29.95 in    
Wind  
Wind Speed 11 mph (East)    
Max Wind Speed 23 mph    
Max Gust Speed 29 mph    
Visibility 10 miles    
Events Rain    
T = Trace of Precipitation, MM = Missing Value Source: NWS Daily Summary

Daily Weather History Graph

Daily Weather History Graph

Search for Another Location

Airport or City:

Trip Planner

Search our weather history database for the weather conditions in past years. The results will help you decide how hot, cold, wet, or windy it might be!

Date:

Astronomy

Jul. 18, 2013 Rise Set
Actual Time 5:26 AM MST 7:22 PM MST
Civil Twilight 4:58 AM MST 7:50 PM MST
Nautical Twilight 4:25 AM MST 8:23 PM MST
Astronomical Twilight 3:50 AM MST 8:58 PM MST
Moon 3:25 PM MST (7/18) 1:15 AM MST (7/18)
Length of Visible Light 14h 51m
Length of Day
13h 56m
Waxing Gibbous, 78% of the Moon is Illuminated
Jul 18
Waxing Gibbous
Jul 22
Full
Jul 29
Last Quarter
Aug 6
New
Aug 14
First Quarter

Hourly Weather History & Observations

Time (MST) Temp. Heat Index Dew Point Humidity Pressure Visibility Wind Dir Wind Speed Gust Speed Precip Events Conditions
12:56 AM 70.0 °F - 59.0 °F 68% 29.95 in 10.0 mi ENE 6.9 mph - N/A   Clear
1:56 AM 69.1 °F - 57.9 °F 68% 29.95 in 10.0 mi East 9.2 mph - N/A   Clear
2:56 AM 68.0 °F - 57.9 °F 70% 29.95 in 10.0 mi East 9.2 mph - N/A   Clear
3:56 AM 66.9 °F - 59.0 °F 76% 29.95 in 10.0 mi East 10.4 mph - N/A   Clear
4:56 AM 64.9 °F - 59.0 °F 81% 29.96 in 10.0 mi SE 4.6 mph - N/A   Clear
5:56 AM 64.9 °F - 59.0 °F 81% 29.98 in 10.0 mi NE 3.5 mph - N/A   Clear
6:56 AM 69.1 °F - 59.0 °F 70% 29.99 in 10.0 mi ENE 4.6 mph - N/A   Clear
7:56 AM 72.0 °F - 59.0 °F 64% 30.00 in 10.0 mi East 4.6 mph - N/A   Partly Cloudy
8:56 AM 75.0 °F - 59.0 °F 57% 29.98 in 10.0 mi East 16.1 mph - N/A   Clear
9:56 AM - - - N/A% 30.16 in - North - - N/A   Unknown
10:56 AM 79.0 °F - 59.0 °F 50% 29.95 in 10.0 mi ENE 15.0 mph - N/A   Partly Cloudy
11:56 AM 81.0 °F 81.1 °F 57.9 °F 45% 29.94 in 10.0 mi ENE 13.8 mph - N/A   Overcast
12:56 PM 79.0 °F - 59.0 °F 50% 29.93 in 10.0 mi East 15.0 mph - N/A   Partly Cloudy
1:56 PM 81.0 °F 81.3 °F 59.0 °F 47% 29.92 in 10.0 mi East 17.3 mph 25.3 mph N/A   Clear
2:56 PM 79.0 °F - 57.9 °F 48% 29.91 in 10.0 mi East 17.3 mph - N/A   Clear
3:56 PM 79.0 °F - 59.0 °F 50% 29.88 in 10.0 mi East 19.6 mph - N/A   Scattered Clouds
4:56 PM 78.1 °F - 59.0 °F 52% 29.90 in 10.0 mi ENE 16.1 mph 23.0 mph N/A   Mostly Cloudy
5:56 PM 77.0 °F - 60.1 °F 56% 29.88 in 10.0 mi ENE 15.0 mph - N/A   Partly Cloudy
6:56 PM 73.9 °F - 59.0 °F 59% 29.91 in 10.0 mi East 16.1 mph - N/A   Mostly Cloudy
7:56 PM 73.0 °F - 59.0 °F 61% 29.91 in 10.0 mi East 16.1 mph - N/A   Overcast
8:56 PM 73.0 °F - 60.1 °F 64% 29.92 in 10.0 mi East 13.8 mph - N/A   Scattered Clouds
9:56 PM 70.0 °F - 63.0 °F 78% 30.13 in 10.0 mi SE 3.5 mph - 0.00 in Rain Light Rain
10:56 PM 69.1 °F - 63.0 °F 81% 29.94 in 10.0 mi East 4.6 mph - 0.02 in Rain Light Rain
11:56 PM 70.0 °F - 63.0 °F 78% 29.92 in 10.0 mi ESE 5.8 mph - 0.01 in   Mostly Cloudy